• Join FlightAware (Why Join?)
  • Login
  • US Flag GB Flag 
21:49 EDT


 

Airport Tracker/Info


-or-


 

Live Flight TrackerFlight Track Log ✈ SWA864 ✈ 20-Jul-2013 ✈ KFLL - KDEN

Flight Track Log - Related Links

Times and Time Zones

All times are in EDT time to prevent confusion due to time zone crossing. See the SWA864 flight status page for this flight to view local times or setup timezone preferences in your user account.

Time Position Orientation Groundspeed Altitude Reporting Facility
EDT Latitude Longitude Course Direction KTS MPH feet Rate Location/Type
09:23 26.1017 -80.0564 331° Northwest 244 281 3,400  Level Miami Center
09:24 26.1533 -80.0878 331° Northwest 290 334 4,400 900 Climbing Miami Center
09:25 26.2106 -80.1497 316° Northwest 285 328 5,100 1,500 Climbing Miami Center
09:26 26.2442 -80.2269 296° West 276 318 7,500 2,700 Climbing Miami Center
09:27 26.2567 -80.3200 279° West 318 366 10,500 2,340 Climbing Miami Center
09:28 26.2711 -80.4131 280° West 318 366 12,200 2,400 Climbing Miami Center
09:29 26.2889 -80.5364 279° West 354 407 15,400 2,760 Climbing Miami Center
09:30 26.3475 -80.6125 311° West 357 411 17,800 2,400 Climbing Miami Center
09:31 26.4433 -80.6989 321° Northwest 380 437 20,300 2,160 Climbing Miami Center
09:32 26.5333 -80.7739 323° Northwest 398 458 22,200 1,920 Climbing Miami Center
09:33 26.6192 -80.8442 324° Northwest 416 479 24,200 1,860 Climbing Miami Center
09:34 26.7150 -80.9264 323° Northwest 428 493 26,000 1,620 Climbing Miami Center
09:35 26.8169 -81.0136 323° Northwest 444 511 27,500 1,620 Climbing Miami Center
09:36 26.9272 -81.1039 324° Northwest 450 518 29,300 1,800 Climbing Miami Center
09:37 27.0269 -81.1889 323° Northwest 455 524 31,100 1,680 Climbing Miami Center
09:38 27.1244 -81.2742 322° Northwest 455 524 32,700 1,560 Climbing Miami Center
09:39 27.2242 -81.3575 323° Northwest 455 524 34,300 1,560 Climbing Miami Center
09:40 27.3239 -81.4431 323° Northwest 455 524 35,900 840 Climbing Miami Center
09:41 27.4214 -81.5289 322° Northwest 450 518 36,000  Climbing Miami Center
09:42 27.5186 -81.6125 323° Northwest 450 518 36,000  Level Miami Center
09:44 27.6964 -81.7631 323° Northwest 445 512 36,000  Level Jacksonville Center
09:45 27.7994 -81.8439 325° Northwest 445 512 36,000  Level Jacksonville Center
09:46 27.8856 -81.9253 320° Northwest 445 512 36,000  Level Jacksonville Center
09:47 27.9864 -82.0111 323° Northwest 445 512 36,000  Level Jacksonville Center
09:48 28.0786 -82.0997 320° Northwest 445 512 36,000  Level Jacksonville Center
09:49 28.1731 -82.1908 320° Northwest 445 512 36,000  Level Jacksonville Center
09:50 28.2675 -82.2844 319° Northwest 445 512 36,000  Level Jacksonville Center
09:51 28.3617 -82.3736 320° Northwest 445 512 36,000  Level Jacksonville Center
09:52 28.4561 -82.4675 319° Northwest 439 505 36,000  Level Jacksonville Center
09:53 28.5503 -82.5594 319° Northwest 439 505 36,000  Level Jacksonville Center
09:54 28.6464 -82.6514 320° Northwest 439 505 36,000  Level Jacksonville Center
09:55 28.7383 -82.7411 319° Northwest 434 499 36,000  Level Jacksonville Center
09:56 28.8322 -82.8358 319° Northwest 439 505 36,000  Level Jacksonville Center
09:57 28.9242 -82.9233 320° Northwest 439 505 36,000  Level Jacksonville Center
09:58 29.0181 -83.0161 319° Northwest 439 505 36,000  Level Jacksonville Center
09:59 29.1119 -83.1089 319° Northwest 439 505 36,000  Level Jacksonville Center
10:00 29.2056 -83.2019 319° Northwest 439 505 36,000  Level Jacksonville Center
10:01 29.2972 -83.2925 319° Northwest 439 505 36,000  Level Jacksonville Center
10:02 29.3886 -83.3858 318° Northwest 439 505 36,000  Level Jacksonville Center
10:03 29.4906 -83.4867 319° Northwest 439 505 36,000  Level Jacksonville Center
10:04 29.5842 -83.5828 318° Northwest 439 505 36,000  Level Jacksonville Center
10:05 29.6775 -83.6767 319° Northwest 439 505 36,000  Level Jacksonville Center
10:06 29.7728 -83.7683 320° Northwest 439 505 36,000  Level Jacksonville Center
10:07 29.8661 -83.8650 318° Northwest 444 511 36,000  Level Jacksonville Center
10:08 29.9614 -83.9569 320° Northwest 444 511 36,000  Level Jacksonville Center
10:09 30.0567 -84.0542 319° Northwest 444 511 36,000  Level Jacksonville Center
10:10 30.1497 -84.1489 319° Northwest 444 511 36,000  Level Jacksonville Center
10:11 30.2303 -84.2317 318° Northwest 439 505 36,000  Level Jacksonville Center
10:12 30.3253 -84.3292 318° Northwest 444 511 36,000  Level Jacksonville Center
10:13 30.4203 -84.4247 319° Northwest 444 511 36,000 600 Level Jacksonville Center
10:14 30.5108 -84.5200 318° Northwest 444 511 37,200 960 Climbing Jacksonville Center
10:15 30.6078 -84.6158 320° Northwest 444 511 38,000 360 Climbing Jacksonville Center
10:16 30.7067 -84.7094 321° Northwest 444 511 38,000  Level Jacksonville Center
10:17 30.8181 -84.7986 326° Northwest 449 517 38,000  Level Jacksonville Center
10:18 30.9131 -84.8708 327° Northwest 449 517 38,000  Level Jacksonville Center
10:19 31.0119 -84.9481 326° Northwest 449 517 38,000  Level Jacksonville Center
10:20 31.1169 -85.0353 325° Northwest 444 511 38,000  Level Jacksonville Center
10:21 31.2222 -85.1178 326° Northwest 449 517 38,000  Level Jacksonville Center
10:22 31.3314 -85.1983 328° Northwest 449 517 38,000  Level Jacksonville Center
10:24 31.5636 -85.4158 321° Northwest 449 517 38,000  Level Atlanta Center
10:25 31.6606 -85.5100 320° Northwest 449 517 38,000  Level Atlanta Center
10:26 31.7556 -85.6044 320° Northwest 455 524 38,000  Level Atlanta Center
10:27 31.8522 -85.6992 320° Northwest 455 524 38,000  Level Atlanta Center
10:28 31.9533 -85.7989 320° Northwest 455 524 38,000  Level Atlanta Center
10:29 32.0478 -85.8939 320° Northwest 455 524 38,000  Level Atlanta Center
10:30 32.1425 -85.9914 319° Northwest 455 524 38,000  Level Atlanta Center
10:31 32.2389 -86.0844 321° Northwest 455 524 38,000  Level Atlanta Center
10:32 32.3417 -86.1778 323° Northwest 460 529 38,000  Level Atlanta Center
10:33 32.4381 -86.2783 319° Northwest 460 529 38,000  Level Atlanta Center
10:34 32.5128 -86.4183 302° West 449 517 38,000  Level Atlanta Center
10:35 32.5664 -86.5528 295° West 454 522 38,000  Level Atlanta Center
10:36 32.6200 -86.6825 296° West 454 522 38,000  Level Atlanta Center
10:37 32.6733 -86.8222 294° West 454 522 38,000  Level Atlanta Center
10:38 32.7286 -86.9550 296° West 449 517 38,000  Level Atlanta Center
10:39 32.7797 -87.0900 294° West 449 517 38,000  Level Atlanta Center
10:40 32.8369 -87.2181 298° West 449 517 38,000  Level Atlanta Center
10:41 32.8917 -87.3561 295° West 449 517 38,000  Level Atlanta Center
10:42 32.9422 -87.4917 294° West 444 511 38,000  Level Atlanta Center
10:44 33.0081 -87.6694 294° West 455 524 38,000  Level Memphis Center
10:45 33.0633 -87.8067 296° West 455 524 38,000  Level Memphis Center
10:46 33.1161 -87.9414 295° West 455 524 38,000  Level Memphis Center
10:47 33.1708 -88.0789 295° West 455 524 38,000  Level Memphis Center
10:48 33.2297 -88.2214 296° West 460 529 38,000  Level Memphis Center
10:49 33.2800 -88.3569 294° West 460 529 38,000  Level Memphis Center
10:50 33.3342 -88.4925 296° West 460 529 38,000  Level Memphis Center
10:51 33.3883 -88.6306 295° West 460 529 38,000  Level Memphis Center
10:52 33.4403 -88.7689 294° West 455 524 38,000  Level Memphis Center
10:53 33.4900 -88.8950 295° West 460 529 38,000  Level Memphis Center
10:54 33.5436 -89.0361 295° West 454 522 38,000  Level Memphis Center
10:55 33.5953 -89.1775 294° West 459 528 38,000  Level Memphis Center
10:56 33.6486 -89.3217 294° West 459 528 38,000  Level Memphis Center
10:57 33.6997 -89.4608 294° West 459 528 38,000  Level Memphis Center
10:58 33.7550 -89.6028 295° West 459 528 38,000  Level Memphis Center
10:59 33.8081 -89.7472 294° West 459 528 38,000  Level Memphis Center
11:00 33.8631 -89.9019 293° West 459 528 38,000  Level Memphis Center
11:01 33.9156 -90.0442 294° West 465 535 38,000  Level Memphis Center
11:02 33.9681 -90.1944 293° West 470 541 38,000  Level Memphis Center
11:03 34.0161 -90.3222 294° West 470 541 38,000  Level Memphis Center
11:04 34.0683 -90.4675 293° West 476 548 38,000  Level Memphis Center
11:05 34.1203 -90.6131 293° West 476 548 38,000  Level Memphis Center
11:06 34.1742 -90.7564 294° West 476 548 38,000  Level Memphis Center
11:07 34.2300 -90.9147 293° West 476 548 38,000  Level Memphis Center
11:08 34.2833 -91.0611 294° West 471 542 38,000  Level Memphis Center
11:09 34.3347 -91.2047 293° West 476 548 38,000  Level Memphis Center
11:10 34.3858 -91.3514 293° West 470 541 38,000  Level Memphis Center
11:11 34.4389 -91.4928 294° West 470 541 38,000  Level Memphis Center
11:12 34.4897 -91.6422 292° West 478 550 38,000  Level Memphis Center
11:13 34.5342 -91.7689 293° West 465 535 38,000  Level Memphis Center
11:14 34.5825 -91.9136 292° West 460 529 38,000  Level Memphis Center
11:15 34.6033 -92.0703 279° West 460 529 38,000  Level Memphis Center
11:16 34.6219 -92.2272 278° West 465 535 38,000  Level Memphis Center
11:17 34.6425 -92.3817 279° West 465 535 38,000  Level Memphis Center
11:18 34.6608 -92.5361 278° West 465 535 38,000  Level Memphis Center
11:19 34.6786 -92.7058 277° West 465 535 38,000  Level Memphis Center
11:20 34.6964 -92.8628 278° West 465 535 38,000  Level Memphis Center
11:21 34.7119 -93.0200 277° West 465 535 38,000  Level Memphis Center
11:22 34.7272 -93.1744 277° West 465 535 38,000  Level Memphis Center
11:23 34.7447 -93.3292 278° West 465 535 38,000  Level Memphis Center
11:24 34.7636 -93.4867 278° West 465 535 38,000  Level Memphis Center
11:25 34.7786 -93.6414 277° West 465 535 38,000  Level Memphis Center
11:26 34.8078 -93.7944 283° West 465 535 38,000  Level Memphis Center
11:27 34.8367 -93.9525 283° West 472 543 38,000  Level Memphis Center
11:28 34.8656 -94.1056 283° West 472 543 38,000  Level Memphis Center
11:29 34.8964 -94.2536 284° West 472 543 38,000  Level Memphis Center
11:30 34.9419 -94.4003 291° West 472 543 38,000  Level Memphis Center
11:31 35.0492 -94.5908 305° West 514 592 38,000  Level Fort Worth Center
11:32 35.1289 -94.7075 310° West 480 552 38,000  Level Fort Worth Center
11:33 35.2106 -94.8244 311° West 461 531 38,000  Level Fort Worth Center
11:34 35.2881 -94.9467 308° West 456 525 38,000  Level Fort Worth Center
11:35 35.3675 -95.0614 310° West 451 519 38,000  Level Fort Worth Center
11:36 35.4158 -95.1331 310° West 445 512 38,000  Level Kansas City Center
11:37 35.4947 -95.2500 310° West 444 511 38,000  Level Kansas City Center
11:38 35.5725 -95.3647 310° West 441 507 38,000  Level Kansas City Center
11:39 35.6511 -95.4800 310° West 438 504 38,000  Level Kansas City Center
11:40 35.7444 -95.6208 309° West 439 505 38,000  Level Kansas City Center
11:41 35.8219 -95.7378 309° West 438 504 38,000  Level Kansas City Center
11:42 35.9008 -95.8539 310° West 438 504 38,000  Level Kansas City Center
11:43 35.9950 -95.9506 320° Northwest 437 503 38,000  Level Kansas City Center
11:44 36.0878 -96.0472 320° Northwest 434 499 38,000  Level Kansas City Center
11:45 36.1806 -96.1431 320° Northwest 433 498 38,000  Level Kansas City Center
11:46 36.2739 -96.2378 321° Northwest 430 495 38,000  Level Kansas City Center
11:47 36.3661 -96.3294 321° Northwest 426 490 38,000  Level Kansas City Center
11:48 36.4769 -96.4411 321° Northwest 425 489 38,000  Level Kansas City Center
11:49 36.5592 -96.5469 314° West 424 488 38,000  Level Kansas City Center
11:50 36.6383 -96.6561 312° West 425 489 38,000  Level Kansas City Center
11:51 36.7056 -96.7767 305° West 426 490 38,000  Level Kansas City Center
11:52 36.7542 -96.9158 294° West 434 499 38,000  Level Kansas City Center
11:53 36.8017 -97.0528 293° West 433 498 38,000  Level Kansas City Center
11:55 36.8500 -97.1922 293° West 431 496 38,000  Level Kansas City Center
11:56 36.8953 -97.3328 292° West 433 498 38,000  Level Kansas City Center
11:57 36.9408 -97.4725 292° West 433 498 38,000  Level Kansas City Center
11:58 36.9958 -97.6367 293° West 430 495 38,000  Level Kansas City Center
11:59 37.0431 -97.7731 293° West 428 493 38,000  Level Kansas City Center
12:00 37.0875 -97.9111 292° West 427 491 38,000  Level Kansas City Center
12:01 37.1328 -98.0467 293° West 424 488 38,000  Level Kansas City Center
12:02 37.1783 -98.1822 293° West 423 487 38,000  Level Kansas City Center
12:03 37.2231 -98.3186 292° West 422 486 38,000  Level Kansas City Center
12:04 37.2678 -98.4547 292° West 420 483 38,000  Level Kansas City Center
12:05 37.3219 -98.6214 292° West 425 489 38,000  Level Kansas City Center
12:06 37.3664 -98.7572 292° West 422 486 38,000  Level Kansas City Center
12:07 37.4094 -98.8942 292° West 420 483 38,000  Level Kansas City Center
12:08 37.4544 -99.0314 292° West 422 486 38,000  Level Kansas City Center
12:09 37.4961 -99.1658 291° West 416 479 38,000  Level Kansas City Center
12:10 37.5400 -99.3033 292° West 419 482 38,000 -300 Level Kansas City Center
12:11 37.5831 -99.4383 292° West 417 480 37,400 -900 Descending Kansas City Center
12:12 37.6314 -99.5914 292° West 419 482 36,300 -720 Descending Kansas City Center
12:13 37.6792 -99.7461 291° West 424 488 36,000 -180 Descending Kansas City Center
12:14 37.7206 -99.8761 292° West 421 484 36,000  Level Kansas City Center
12:15 37.7675 -100.0281 291° West 417 480 36,000  Level Kansas City Center
12:16 37.8078 -100.1592 291° West 418 481 36,000  Level Kansas City Center
12:17 37.8542 -100.3092 291° West 414 476 36,000  Level Kansas City Center
12:18 37.8939 -100.4397 291° West 415 478 36,000  Level Kansas City Center
12:19 37.9403 -100.5911 291° West 416 479 36,000  Level Kansas City Center
12:20 37.9797 -100.7206 291° West 415 478 36,000  Level Kansas City Center
12:21 38.0247 -100.8725 291° West 415 478 36,000  Level Kansas City Center
12:22 38.0639 -101.0044 291° West 419 482 36,000  Level Kansas City Center
12:23 38.1086 -101.1578 290° West 418 481 36,000  Level Kansas City Center
12:25 38.1469 -101.2889 290° West 416 479 36,000  Level Kansas City Center
12:25 38.1736 -101.3742 292° West 414 476 36,000  Level Denver Center
12:26 38.2306 -101.5186 297° West 412 474 36,000 -60 Level Denver Center
12:27 38.3089 -101.6756 302° West 412 474 35,900 -480 Descending Denver Center
12:28 38.3675 -101.7922 303° West 410 472 35,000 -960 Descending Denver Center
12:29 38.4225 -101.9392 296° West 412 474 34,000 -540 Descending Denver Center
12:31 38.4567 -102.0719 288° West 411 473 34,000  Level Denver Center
12:32 38.4961 -102.2264 288° West 411 473 34,000 -60 Level Denver Center
12:33 38.5300 -102.3575 288° West 407 468 33,900 -600 Descending Denver Center
12:34 38.5686 -102.5108 288° West 407 468 32,800 -1,020 Descending Denver Center
12:35 38.6022 -102.6433 288° West 410 472 31,800 -900 Descending Denver Center
12:36 38.6406 -102.7931 288° West 415 478 31,000 -540 Descending Denver Center
12:37 38.6744 -102.9322 287° West 410 472 30,700 -660 Descending Denver Center
12:38 38.7083 -103.0650 288° West 397 457 29,700 -960 Descending Denver Center
12:39 38.7417 -103.1969 288° West 390 449 28,700 -960 Descending Denver Center
12:40 38.7731 -103.3303 287° West 391 450 27,700 -840 Descending Denver Center
12:41 38.8114 -103.4742 289° West 388 447 27,000 -720 Descending Denver Center
12:42 38.8700 -103.5681 309° West 381 438 26,300 -960 Descending Denver Center
12:43 38.9547 -103.6881 312° West 379 436 25,100 -1,080 Descending Denver Center
12:44 39.0233 -103.7850 312° West 369 425 24,100 -1,020 Descending Denver Center
12:45 39.0922 -103.8825 312° West 368 423 23,100 -780 Descending Denver Center
12:46 39.1614 -103.9819 312° West 373 429 22,500 -900 Descending Denver Center
12:47 39.2456 -104.1042 312° West 380 437 21,300 -1,260 Descending Denver Center
12:48 39.3225 -104.1778 324° Northwest 342 394 20,000 -1,440 Descending Denver Center
12:49 39.4011 -104.2400 329° Northwest 333 383 18,400 -1,380 Descending Denver Center
12:50 39.4792 -104.3050 327° Northwest 311 358 17,000 -720 Descending Denver Center
12:51 39.5678 -104.3769 328° Northwest 305 351 16,800 -360 Descending Denver Center
12:52 39.6314 -104.4292 328° Northwest 270 311 16,300 -1,080 Descending Denver Center
12:53 39.6953 -104.4819 328° Northwest 255 293 14,600 -1,620 Descending Denver Center
12:55 39.7583 -104.5225 334° Northwest 251 289 13,000 -1,320 Descending Denver Center
12:56 39.8183 -104.5217 North 254 292 12,000 -1,020 Descending Denver Center
12:57 39.9042 -104.5219 360° North 253 291 11,000 -540 Descending Denver Center
12:58 39.9783 -104.5208 North 249 287 10,900 -540 Descending Denver Center
12:59 40.0489 -104.5172 North 254 292 9,900 -1,020 Descending Denver Center
13:00 40.0922 -104.5708 317° Northwest 241 277 8,900 -1,020 Descending Denver Center
13:01 40.0539 -104.6308 230° Southwest 221 254 7,800 -960 Descending Denver Center
13:02 39.9969 -104.6756 211° Southwest 222 255 7,000 -780 Descending Denver Center
13:03 39.9461 -104.6867 190° South 189 217 6,200 -780 Descending Denver Center
13:04 39.8978 -104.6869 180° South 164 189 5,400 -780 Descending Denver Center
13:06 39.8617 -104.6732 North  Level Estimated
13:13 39.8617 -104.6732 North  Level Estimated
13:14 39.8617 -104.6732 North  Level Estimated
13:15 39.8617 -104.6732 North  Level Estimated